SCP
1 1 0 0 0 0 0 0 0 0 0 0 0 0 0 0 0 0 0 0 0 0 0 0 0 0 0 1 1 1 1 1 1 1 1 1 1 1 1 1 1 1 1 1 1 1 1 1 1
1 0 0 0 0 0 0 0 0 0 0 0 0 0 0 0 0 0 0 0 0 0 0 0 0 0 0 0 0 0 0 1 1 1 1 1 1 1 1 1 1 1 1 1 1 1 1 1 1
0 0 0 0 0 0 0 0 0 0 0 0 0 0 0 0 0 0 0 0 0 0 0 0 1 1 1 1 0 0 0 0 1 1 1 1 1 1 1 1 1 1 1 1 1 1 1 1 1
0 0 0 0 0 0 0 0 0 0 0 0 0 1 1 0 0 0 1 1 1 0 0 0 1 1 1 1 1 0 0 0 0 0 0 1 1 1 1 1 1 1 0 0 1 0 0 1 1
0 0 0 0 0 0 0 0 0 0 0 0 0 1 1 1 1 1 1 1 1 1 0 0 1 1 1 1 1 0 0 0 0 0 0 0 0 0 1 1 1 0 0 0 0 0 0 0 0
0 0 0 0 0 0 0 0 0 0 0 0 1 1 1 1 1 1 1 1 1 1 0 1 1 1 1 1 0 0 0 0 0 0 0 0 0 0 0 0 0 0 0 0 0 0 0 0 0
0 0 0 0 0 0 0 0 0 0 0 0 1 1 1 1 1 1 1 1 1 1 1 1 1 1 1 0 0 0 0 0 0 0 0 0 0 0 0 0 0 0 0 0 0 0 0 0 1
0 0 0 0 0 0 0 0 0 0 0 0 1 1 1 1 1 1 2 2 1 1 1 0 0 0 0 0 0 0 0 0 0 0 0 0 0 0 0 0 0 0 0 0 0 0 0 1 1
0 0 0 0 0 0 0 0 0 0 0 0 1 2 2 3 2 2 2 2 1 1 0 0 0 0 0 0 0 0 1 1 1 1 1 1 0 0 0 0 0 0 0 0 0 0 0 1 1
0 0 0 0 0 0 0 0 0 0 0 0 1 2 3 3 2 2 2 2 1 0 0 0 0 0 0 0 0 0 0 1 1 1 0 0 0 0 0 0 0 1 1 0 0 0 0 0 0
0 0 0 0 0 0 0 0 0 0 0 0 1 2 2 2 1 1 1 1 1 1 0 0 0 0 0 0 0 0 0 0 0 0 0 0 0 0 0 0 1 1 1 0 0 0 0 0 0
0 0 0 0 0 0 0 0 0 0 0 0 1 2 2 1 0 0 1 1 1 1 1 0 0 1 1 1 1 1 0 0 0 0 0 0 0 0 0 0 1 1 0 0 0 0 0 0 0
0 0 0 0 0 0 0 0 0 0 0 0 1 2 2 1 0 0 0 1 1 1 1 1 1 1 1 1 1 1 1 0 0 0 0 0 0 0 0 0 1 1 0 0 0 0 0 0 0
0 0 0 0 0 0 0 0 0 0 0 0 1 2 2 1 1 0 0 0 1 1 1 1 1 1 1 1 1 1 1 0 0 0 0 0 0 0 0 0 0 0 0 0 0 0 0 0 0
0 0 0 0 0 0 0 0 0 0 0 0 1 1 1 1 1 1 0 0 0 0 1 1 1 1 1 1 1 1 0 0 0 0 0 0 0 0 0 0 0 1 1 1 0 0 0 0 0
0 0 0 0 0 0 0 0 0 0 0 0 0 0 1 1 1 1 1 0 0 0 0 0 0 0 0 0 0 0 0 0 0 0 0 0 0 0 0 0 0 1 1 1 1 1 1 1 0
0 0 0 1 1 0 0 0 0 0 0 0 0 0 0 0 1 1 1 1 0 0 0 0 0 0 0 0 0 0 0 0 0 0 0 0 0 0 0 0 0 0 0 1 1 1 1 1 1
0 0 1 1 1 1 0 0 0 0 0 0 0 0 0 0 0 1 0 0 0 0 0 0 0 0 0 0 0 0 0 0 0 0 0 0 0 0 0 0 0 0 0 0 1 1 1 1 1
0 0 1 1 1 1 1 0 0 0 0 0 0 0 0 0 0 0 0 0 0 0 0 0 0 0 0 0 0 0 0 0 1 0 0 0 0 0 0 0 0 0 0 0 0 0 0 1 1
0 0 0 1 1 1 1 1 1 0 0 0 0 0 0 0 0 0 0 0 0 0 0 0 0 0 0 0 0 0 0 0 0 0 0 0 0 0 0 0 0 0 0 0 0 0 0 0 0
0 0 0 0 0 1 1 1 1 1 0 0 0 0 0 0 0 0 0 0 0 0 0 0 0 0 0 0 0 0 0 0 0 0 0 0 0 0 0 0 0 0 0 0 0 0 0 0 0
0 0 0 0 0 0 0 0 1 1 1 0 0 0 0 0 0 0 0 0 0 0 0 0 0 0 0 0 0 0 0 0 0 0 0 0 0 0 0 0 1 1 0 0 0 0 0 0 0
0 0 0 0 0 0 0 0 0 0 1 0 0 0 0 0 0 0 0 0 0 0 0 0 0 0 0 0 0 1 1 1 0 0 0 0 0 0 0 1 1 1 0 0 0 0 0 0 0
0 0 0 0 0 0 0 0 0 0 0 0 0 0 0 0 0 0 0 0 0 0 0 0 0 0 0 0 0 0 1 1 0 1 1 1 1 1 0 1 1 0 0 0 0 0 0 0 0
0 0 0 0 0 0 0 0 0 0 0 0 0 0 0 0 0 0 0 0 0 0 0 0 0 0 1 1 1 0 0 0 0 0 1 1 1 1 0 0 0 0 0 0 0 0 0 0 0
0 0 0 0 0 0 0 0 0 0 0 0 0 0 1 1 0 0 0 0 0 0 0 0 0 0 1 1 1 0 0 0 0 0 1 1 1 0 0 0 0 0 0 0 0 0 0 0 0
0 0 0 0 0 0 0 0 0 0 0 0 0 0 1 1 0 0 0 0 0 0 0 0 0 1 1 1 1 1 0 0 0 0 0 0 0 0 0 0 0 0 0 0 0 0 0 0 0
0 0 0 0 0 0 0 0 0 0 0 0 0 0 0 0 0 0 0 0 0 0 1 1 1 1 1 1 1 1 1 1 0 0 0 0 0 0 0 0 0 0 0 0 0 0 0 0 0
0 0 0 0 0 0 0 0 0 0 0 0 0 0 0 0 0 0 0 1 1 1 1 1 1 1 1 1 1 1 1 1 1 0 0 0 0 0 0 0 0 0 0 0 0 0 0 0 0
0 0 0 0 0 0 0 0 0 0 0 0 0 0 0 0 0 0 1 1 1 1 2 2 2 2 1 1 1 1 1 1 1 1 0 0 0 0 0 0 0 0 0 0 0 0 0 0 0
Wind_Speed
3 1 2 4 7 6 3 1 2 3 4 4 8 10 8 6 4 5 2 4 6 4 3 4 7 8 9 9 10 10 10 10 11 11 11 11 11 11 11 11 10 10 10 10 10 10 9 10 9
1 1 4 5 6 4 1 1 4 4 6 7 8 8 8 6 4 5 2 4 6 5 3 5 8 9 9 10 10 10 10 10 11 11 11 11 11 10 10 10 10 10 10 10 10 9 9 9 9
1 1 4 5 4 4 3 1 4 5 5 5 5 6 5 4 4 3 4 6 7 5 4 5 8 9 9 10 10 9 9 10 10 10 10 10 10 10 10 10 10 10 10 10 10 9 9 9 9
3 4 5 6 5 2 5 4 4 6 6 6 6 6 4 2 3 5 7 8 8 5 4 5 8 9 9 9 9 9 9 9 9 9 10 9 9 9 9 9 10 10 10 9 9 8 8 8 8
4 5 6 4 3 2 3 4 5 6 4 5 7 6 3 2 5 8 8 8 8 5 4 4 8 8 8 8 9 9 9 9 9 9 9 9 9 9 9 9 9 9 9 9 8 8 7 8 8
5 5 5 3 3 2 2 4 7 8 6 6 7 6 2 2 6 7 8 7 7 6 4 4 7 8 8 8 8 8 8 8 8 8 8 8 8 8 8 8 8 8 8 7 7 7 7 7 7
4 4 3 3 3 2 2 3 6 7 5 4 6 6 2 1 4 7 7 6 6 5 4 3 2 4 6 7 7 7 7 7 7 6 6 7 7 7 7 7 7 7 6 6 7 7 7 7 7
5 5 3 2 3 2 2 3 4 6 4 4 5 7 5 5 5 6 6 6 5 4 4 3 2 2 2 2 5 6 6 6 5 5 5 5 5 5 5 5 5 5 5 5 5 6 6 6 7
4 5 2 3 4 2 3 5 3 4 7 4 3 5 6 8 7 7 5 4 3 3 2 3 2 1 1 1 2 3 4 4 3 3 3 3 2 2 2 3 4 4 4 4 4 5 6 6 7
5 3 4 4 5 5 4 5 4 4 6 5 6 5 7 8 7 7 6 5 4 3 3 2 3 2 1 1 2 1 1 1 1 1 1 1 1 1 2 3 4 4 4 4 5 5 5 5 3
3 4 3 2 4 5 4 3 3 7 4 6 9 9 8 7 7 7 5 5 4 5 4 3 3 2 2 1 1 1 1 1 1 1 1 1 1 1 2 1 2 2 3 3 3 4 3 3 2
3 2 4 4 4 4 4 3 3 4 6 8 11 12 9 8 7 7 6 4 4 4 4 3 4 3 2 2 2 1 1 1 1 1 2 2 1 1 1 1 1 1 1 2 2 2 2 3 3
2 2 2 3 5 4 4 4 4 4 6 8 10 10 9 8 6 5 5 4 4 4 3 4 4 4 3 3 2 2 1 1 1 1 1 2 1 1 1 1 1 1 1 1 1 2 2 3 3
3 4 3 4 4 3 6 3 4 5 7 9 10 9 8 8 7 6 5 4 3 3 4 3 4 4 4 3 2 2 1 1 2 2 2 2 2 1 1 1 1 1 1 1 2 2 3 2 3
3 3 2 1 3 3 5 1 4 7 8 9 9 8 8 7 7 7 6 5 4 3 3 4 5 4 4 3 3 2 2 2 2 2 2 3 2 2 2 2 1 1 1 2 2 3 3 3 3
3 3 1 3 3 3 6 4 6 8 9 8 7 7 7 6 6 6 6 6 5 4 3 4 4 4 3 3 3 2 2 3 2 2 2 3 3 3 3 2 2 1 2 2 2 2 3 3 3
2 1 3 3 4 4 5 5 5 7 10 8 7 7 7 5 5 5 6 7 6 5 5 4 4 4 3 3 3 3 2 3 2 2 2 3 3 3 3 2 2 2 2 2 2 2 2 3 2
3 3 4 6 5 5 5 5 5 7 9 9 7 7 6 7 7 6 6 6 6 6 6 5 4 3 3 3 3 2 3 2 2 2 2 3 2 3 3 2 2 2 2 2 2 2 2 2 2
4 4 4 6 5 5 5 6 6 7 7 7 7 7 7 7 6 5 6 5 5 5 6 5 4 3 3 2 2 2 1 1 2 2 2 2 2 3 3 2 2 2 2 2 2 2 3 2 2
3 2 3 3 3 5 4 6 5 9 10 11 10 9 9 7 5 4 4 4 5 5 5 4 4 4 3 2 2 2 2 1 1 1 2 3 3 2 2 2 2 2 2 2 2 2 2 1 1
2 3 4 3 1 0 1 3 3 4 6 7 8 8 9 10 10 7 6 5 5 5 5 5 4 4 3 3 3 3 3 2 2 2 2 2 2 2 2 2 2 2 2 1 1 2 3 1 1
4 4 4 3 2 3 2 3 6 5 5 7 7 8 9 9 9 8 8 6 6 6 5 5 5 4 3 4 4 4 3 2 1 0 1 2 2 2 2 2 2 2 2 2 1 1 2 2 1
5 3 2 2 3 1 1 3 7 3 5 8 8 9 9 9 10 10 9 8 7 6 6 5 5 4 3 4 4 5 3 2 1 1 2 2 2 2 2 2 2 2 1 1 1 1 1 2 2
2 3 4 5 4 2 5 4 6 5 9 8 9 9 9 9 9 8 7 6 5 5 5 5 5 4 3 4 4 4 4 3 3 2 1 1 1 2 2 2 2 2 1 1 1 1 1 1 1
5 6 4 4 3 5 3 3 8 7 8 10 12 10 9 9 9 8 8 7 6 6 5 5 6 4 4 4 4 4 4 5 4 3 2 1 0 1 1 1 1 1 1 1 1 1 1 1 1
3 7 6 4 4 5 2 4 6 4 4 6 7 8 9 9 9 9 9 8 7 7 6 6 6 5 4 4 4 3 4 3 3 3 2 2 1 1 1 0 1 1 1 2 2 1 0 1 1
3 3 5 5 2 2 4 4 5 2 3 5 7 8 8 9 9 9 8 7 7 7 7 7 7 5 5 5 4 4 3 3 3 3 2 2 1 1 1 0 1 1 1 1 2 1 1 1 1
4 5 5 3 2 2 4 3 4 4 4 5 7 8 8 8 8 8 7 7 6 6 5 5 6 6 5 5 4 4 3 3 3 3 2 2 1 1 1 1 1 1 1 1 1 1 1 1 1
2 2 3 3 4 4 2 6 5 7 7 8 8 8 8 8 8 7 6 5 5 5 5 5 5 5 5 5 4 4 3 3 3 3 3 2 2 1 1 1 1 1 1 1 2 1 1 1 1
5 5 6 4 3 4 3 7 4 4 6 7 8 7 7 8 7 7 6 5 4 4 4 5 5 5 5 4 4 4 3 3 3 3 2 2 2 1 1 1 1 1 1 1 1 1 1 1 1
Wind_Direction
301 318 93 62 54 55 72 68 117 76 60 56 70 80 81 65 87 125 219 141 131 128 114 100 93 90 88 85 83 83 84 84 84 84 83 82 82 80 78 78 79 82 83 84 84 84 84 84 84
340 29 64 59 78 80 53 82 88 94 132 120 83 78 76 68 78 106 127 146 132 124 112 104 97 91 91 90 88 86 85 83 84 86 85 83 83 81 80 81 78 79 81 84 83 83 83 82 84
321 76 77 69 91 135 147 156 112 94 100 95 83 62 75 99 106 130 162 144 123 118 110 111 103 97 94 94 92 90 89 87 86 87 86 83 82 80 79 81 79 77 78 81 79 79 81 82 81
59 47 55 72 84 128 148 159 122 98 66 57 91 72 66 85 137 143 138 129 119 117 114 113 107 101 98 96 95 95 93 93 90 90 90 86 83 82 81 81 80 77 77 81 79 79 81 83 79
64 70 63 67 77 87 125 129 112 98 85 74 89 91 69 48 116 129 131 127 122 118 113 114 110 107 103 101 98 97 97 98 96 92 92 91 89 85 83 81 82 79 77 80 77 74 78 80 77
57 67 81 95 94 80 82 106 100 95 111 109 99 104 105 131 124 136 132 127 127 127 120 115 114 109 105 103 103 101 99 99 99 96 94 93 93 90 87 87 86 81 77 76 74 72 76 75 70
101 91 115 134 117 96 126 106 104 116 112 123 121 104 127 168 146 138 131 126 123 123 120 108 111 106 108 109 108 108 104 101 98 97 96 96 95 94 90 88 89 87 82 75 72 71 71 72 68
123 103 100 128 128 141 143 104 113 118 115 112 111 126 163 188 146 127 122 119 117 120 127 124 118 97 97 113 114 107 104 100 97 93 92 96 93 91 91 88 91 91 87 80 75 70 67 68 68
95 84 138 175 157 162 132 103 87 85 102 88 87 133 158 147 126 114 109 101 118 132 140 141 142 136 123 133 122 104 99 96 89 80 88 83 58 52 66 77 84 85 78 75 73 70 63 64 65
90 122 196 187 165 157 140 122 129 90 85 82 77 86 117 129 129 134 140 143 149 160 171 158 151 150 147 127 79 44 48 51 47 42 52 56 52 37 65 60 71 70 65 62 64 60 58 55 46
115 158 173 147 162 143 129 119 112 122 125 156 148 146 140 136 138 145 150 152 161 164 164 170 160 149 137 93 96 62 39 42 38 45 68 67 50 35 45 39 34 42 51 40 37 36 37 47 47
107 156 152 150 147 131 138 133 117 145 177 172 157 153 150 150 154 156 154 155 140 134 150 154 159 139 132 119 105 93 65 46 42 25 67 73 57 48 63 58 38 40 42 47 42 45 38 43 47
118 157 137 133 122 134 121 127 133 147 153 147 143 144 154 155 153 152 150 147 134 139 147 147 141 139 131 109 101 97 87 75 61 47 48 82 81 69 72 65 67 46 48 64 60 59 58 54 53
162 141 127 136 138 151 136 143 123 170 149 141 145 152 158 156 156 145 134 132 137 143 142 143 132 134 124 113 110 101 94 80 66 55 55 77 85 80 75 79 79 60 48 71 85 82 82 69 65
118 104 68 182 165 163 122 111 180 180 152 148 155 159 159 162 154 153 153 145 144 142 129 132 127 118 117 117 115 101 84 77 69 57 52 63 73 79 78 80 75 60 67 76 77 67 69 68 64
64 90 173 257 185 174 136 211 219 178 153 160 163 161 166 169 160 157 153 144 144 138 122 123 121 114 111 107 99 89 81 82 71 58 47 51 61 71 75 73 63 58 77 83 88 76 73 62 58
36 157 220 257 215 175 162 211 219 180 161 166 170 167 169 165 163 160 156 153 150 145 135 122 116 121 117 105 100 91 81 77 71 63 54 47 56 72 81 73 57 65 73 72 91 78 88 80 64
216 213 220 219 220 173 186 218 208 183 168 172 175 168 172 173 180 171 162 158 147 142 135 127 124 131 125 105 88 75 63 59 60 59 56 60 62 70 78 77 59 60 73 63 72 83 70 89 90
201 203 224 230 213 176 206 221 208 187 179 179 179 175 180 184 185 170 158 151 139 134 134 140 139 135 127 112 107 98 77 49 44 43 50 64 69 72 78 78 69 69 79 88 94 92 80 59 68
205 200 235 269 216 178 207 234 213 189 192 188 184 183 183 175 162 158 150 144 144 148 146 137 132 136 136 139 149 135 126 102 80 43 39 46 58 61 84 81 79 78 80 71 81 94 93 61 64
218 193 211 218 315 304 142 289 236 216 201 193 186 181 179 173 169 165 156 151 144 149 155 150 146 142 135 126 106 86 67 51 41 35 23 14 49 66 81 91 95 90 95 109 108 113 118 126 8
235 225 204 179 130 256 169 251 259 218 204 201 193 181 179 173 167 167 165 161 160 161 151 144 143 139 135 130 127 127 126 129 174 160 36 8 28 53 67 85 94 99 97 105 127 114 120 130 139
216 223 193 182 164 286 260 188 273 207 207 210 200 188 181 175 169 169 171 172 167 154 148 149 141 135 135 132 134 133 128 132 121 83 66 37 17 33 49 71 83 90 91 92 81 81 108 123 142
169 66 39 51 74 292 239 184 260 216 207 198 198 191 179 173 168 166 166 158 153 148 147 148 144 148 145 131 131 139 140 133 118 101 89 47 16 18 32 64 74 82 80 79 83 87 107 110 120
86 84 36 3 12 254 243 190 246 239 206 188 186 184 175 169 165 164 161 162 162 161 160 155 150 155 157 140 141 150 150 148 151 157 154 139 74 360 347 41 57 67 79 79 76 70 54 107 118
169 137 154 194 224 273 307 226 258 274 198 174 166 161 159 163 166 168 170 170 170 169 164 157 157 162 164 154 154 150 151 155 160 166 164 171 188 216 233 42 57 53 74 77 67 56 33 91 103
141 165 171 148 205 264 277 284 311 16 109 142 149 156 165 169 170 170 168 170 171 171 169 165 162 161 164 162 154 148 150 151 157 163 154 163 181 183 129 100 92 74 80 80 78 62 32 71 69
153 151 98 120 170 257 287 266 242 224 198 171 167 173 174 169 168 168 170 172 170 171 168 159 159 163 160 156 163 158 161 160 154 144 147 157 167 148 133 117 114 96 100 96 86 66 47 72 53
153 140 129 144 166 163 246 269 238 204 192 179 179 176 170 167 169 170 170 169 163 156 157 158 159 155 159 163 161 154 163 160 151 154 167 168 157 142 132 141 131 116 109 100 92 69 65 78 42
171 173 148 161 223 172 178 267 290 205 184 171 171 170 166 165 163 164 162 154 154 158 160 167 168 165 172 170 160 159 160 156 155 165 173 162 154 151 143 141 130 120 105 108 123 137 100 124 117